User: anonymous   Login
Location: Fiddletown
(38.4917°N, 120.6633°W)
Time: 11:54:34
(UTC-08:00)
Language:

Envisat - Orbit

View from above orbital plane
View from above orbital plane
View from above satellite
View from above satellite

Ground track
Ground track

The orbit data is extracted from the following two-line orbital elements,

1 27386U 02009A   17060.45750848  .00000016  00000-0  19014-4 0  9998
2 27386  98.2464 110.1520 0001194  88.0500 272.0829 14.37889416785592
Epoch (UTC): 01 March 2017 10:58:48
Eccentricity: 0.0001194
inclination: 98.2464°
perigee height: 764 km
apogee height: 766 km
right ascension of ascending node: 110.1520°
argument of perigee: 88.0500°
revolutions per day: 14.37889416
mean anomaly at epoch: 272.0829°
orbit number at epoch: 78559

The dashed part of the orbit path shows where the satellite is in the earth's shadow,  

DLR